Location: Newark
(51.2000°N, 58.6167°E)
Time: 08:45:20
(UTC+00:00)

Envisat - Pass Details

Date: 30 September 2020
Orbit: 764 x 766 km, 98.1° (Epoch: 23 October)

Event Time Altitude Azimuth Distance (km) Brightness Sun altitude
Rises 15:01:23 0° 227° (SW) 3,226 6.8 -12.7°
Reaches altitude 10° 15:06:02 10° 266° (W) 2,307 6.8 -13.5°
Maximum altitude 15:07:00 11° 277° (W) 2,276 6.9 -13.6°
Drops below altitude 10° 15:07:57 10° 288° (WNW) 2,311 6.9 -13.7°
Sets 15:12:40 0° 328° (NNW) 3,245 7.0 -14.5°
